Time,TemperatureF,DewpointF,PressureIn,WindDirection,WindDirectionDegrees,WindSpeedMPH,WindSpeedGustMPH,Humidity,HourlyPrecipIn,Conditions,Clouds,dailyrainin,SoftwareType,DateUTC
2014-01-02 00:22:00,33.0,29.0,30.24,WNW,292,0.0,0.0,86,0.00,,,0.00,,2014-01-02 05:22:00,
2014-01-02 00:53:00,33.0,29.0,30.22,WNW,292,0.0,0.0,86,0.00,,,0.00,,2014-01-02 05:53:00,
2014-01-02 01:22:00,33.0,30.0,30.21,WNW,292,0.0,0.0,87,0.00,,,0.00,,2014-01-02 06:22:00,
2014-01-02 01:42:00,33.0,30.0,30.21,WNW,292,0.0,0.0,87,0.00,,,0.00,,2014-01-02 06:42:00,
2014-01-02 01:53:00,34.0,31.0,30.21,WNW,292,0.0,0.0,87,0.00,,,0.00,,2014-01-02 06:53:00,
2014-01-02 02:22:00,34.0,31.0,30.20,WNW,292,0.0,0.0,87,0.00,,,0.00,,2014-01-02 07:22:00,
2014-01-02 02:42:00,34.0,31.0,30.19,WNW,292,0.0,0.0,88,0.00,,,0.00,,2014-01-02 07:42:00,
2014-01-02 02:52:00,34.0,31.0,30.19,WNW,292,0.0,0.0,88,0.00,,,0.00,,2014-01-02 07:52:00,
2014-01-02 03:22:00,34.0,31.0,30.17,WNW,292,0.0,0.0,88,0.00,,,0.00,,2014-01-02 08:22:00,
2014-01-02 03:42:00,34.0,31.0,30.18,WNW,292,0.0,0.0,89,0.00,,,0.00,,2014-01-02 08:42:00,
2014-01-02 03:53:00,35.0,32.0,30.15,WNW,292,0.0,0.0,88,0.00,,,0.00,,2014-01-02 08:53:00,
2014-01-02 04:22:00,35.0,32.0,30.14,WNW,292,0.0,0.0,88,0.00,,,0.00,,2014-01-02 09:22:00,
2014-01-02 04:53:00,35.0,32.0,30.11,WNW,292,0.0,0.0,88,0.00,,,0.00,,2014-01-02 09:53:00,
2014-01-02 05:24:00,35.0,32.0,30.11,WNW,292,0.0,0.0,89,0.00,,,0.00,,2014-01-02 10:24:00,
2014-01-02 05:53:00,35.0,32.0,30.10,WNW,292,0.0,0.0,89,0.00,,,0.00,,2014-01-02 10:53:00,
2014-01-02 06:23:00,34.0,31.0,30.09,WNW,292,0.0,0.0,89,0.00,,,0.00,,2014-01-02 11:23:00,
2014-01-02 06:53:00,34.0,31.0,30.06,WNW,292,0.0,0.0,90,0.00,,,0.00,,2014-01-02 11:53:00,
2014-01-02 07:22:00,34.0,31.0,30.06,WNW,292,0.0,0.0,90,0.00,,,0.00,,2014-01-02 12:22:00,
2014-01-02 07:52:00,34.0,31.0,30.05,WNW,292,0.0,0.0,90,0.00,,,0.00,,2014-01-02 12:52:00,
2014-01-02 08:22:00,34.0,31.0,30.03,WNW,292,0.0,0.0,90,0.00,,,0.00,,2014-01-02 13:22:00,
2014-01-02 08:42:00,34.0,32.0,30.04,WNW,292,0.0,0.0,91,0.00,,,0.00,,2014-01-02 13:42:00,
2014-01-02 08:52:00,35.0,33.0,30.03,WNW,292,0.0,0.0,91,0.00,,,0.00,,2014-01-02 13:52:00,
2014-01-02 09:22:00,36.0,34.0,30.01,WNW,292,0.0,0.0,91,0.00,,,0.00,,2014-01-02 14:22:00,
2014-01-02 09:42:00,36.0,34.0,30.02,NNW,329,0.0,1.0,91,0.00,,,0.00,,2014-01-02 14:42:00,
2014-01-02 09:52:00,37.0,35.0,30.01,NNW,329,0.0,0.0,91,0.00,,,0.00,,2014-01-02 14:52:00,
2014-01-02 10:22:00,39.0,36.0,30.00,NNW,329,0.0,1.0,90,0.00,,,0.00,,2014-01-02 15:22:00,
2014-01-02 10:53:00,40.0,37.0,29.98,NNW,329,0.0,1.0,90,0.00,,,0.00,,2014-01-02 15:53:00,
2014-01-02 11:24:00,41.0,38.0,29.96,NNW,329,0.0,0.0,88,0.00,,,0.00,,2014-01-02 16:24:00,
2014-01-02 11:53:00,42.0,38.0,29.93,North,360,0.0,1.0,87,0.00,,,0.00,,2014-01-02 16:53:00,
2014-01-02 12:22:00,43.0,39.0,29.91,NE,43,0.0,1.0,87,0.00,,,0.00,,2014-01-02 17:22:00,
2014-01-02 12:52:00,43.0,40.0,29.88,NE,43,0.0,1.0,90,0.01,,,0.01,,2014-01-02 17:52:00,
2014-01-02 13:22:00,43.0,41.0,29.86,NE,43,0.0,0.0,92,0.03,,,0.03,,2014-01-02 18:22:00,
2014-01-02 13:43:00,43.0,41.0,29.86,NE,42,0.0,1.0,92,0.06,,,0.06,,2014-01-02 18:43:00,
2014-01-02 13:53:00,43.0,41.0,29.83,WSW,251,0.0,0.0,93,0.09,,,0.10,,2014-01-02 18:53:00,
2014-01-02 14:22:00,44.0,42.0,29.80,WSW,244,0.0,0.0,93,0.10,,,0.13,,2014-01-02 19:22:00,
2014-01-02 14:42:00,44.0,42.0,29.80,WSW,244,0.0,1.0,93,0.08,,,0.14,,2014-01-02 19:42:00,
2014-01-02 14:52:00,44.0,42.0,29.79,WSW,244,0.0,0.0,93,0.07,,,0.17,,2014-01-02 19:52:00,
2014-01-02 15:22:00,45.0,43.0,29.78,WSW,244,0.0,0.0,94,0.07,,,0.20,,2014-01-02 20:22:00,
2014-01-02 15:42:00,45.0,43.0,29.78,WSW,244,0.0,0.0,94,0.07,,,0.21,,2014-01-02 20:42:00,
2014-01-02 15:52:00,45.0,43.0,29.77,South,190,0.0,2.0,94,0.05,,,0.22,,2014-01-02 20:52:00,
2014-01-02 16:22:00,45.0,43.0,29.75,West,277,0.0,2.0,94,0.03,,,0.23,,2014-01-02 21:22:00,
2014-01-02 16:53:00,45.0,43.0,29.75,SE,144,0.0,0.0,94,0.03,,,0.25,,2014-01-02 21:53:00,
2014-01-02 17:23:00,45.0,44.0,29.76,SE,144,0.0,1.0,95,0.03,,,0.26,,2014-01-02 22:23:00,
2014-01-02 17:53:00,45.0,44.0,29.75,ENE,65,0.0,0.0,95,0.03,,,0.28,,2014-01-02 22:53:00,
2014-01-02 18:22:00,45.0,44.0,29.74,SSW,198,0.0,2.0,95,0.04,,,0.30,,2014-01-02 23:22:00,
2014-01-02 18:53:00,45.0,44.0,29.76,SSE,153,0.0,1.0,95,0.02,,,0.30,,2014-01-02 23:53:00,
2014-01-02 19:22:00,44.0,42.0,29.76,ENE,72,0.0,2.0,94,0.00,,,0.30,,2014-01-03 00:22:00,
2014-01-02 19:42:00,43.0,41.0,29.75,ENE,73,0.0,1.0,94,0.00,,,0.30,,2014-01-03 00:42:00,
2014-01-02 19:52:00,43.0,41.0,29.75,ENE,73,0.0,0.0,94,0.00,,,0.30,,2014-01-03 00:52:00,
2014-01-02 20:22:00,41.0,39.0,29.76,ENE,73,0.0,2.0,94,0.00,,,0.30,,2014-01-03 01:22:00,
2014-01-02 20:52:00,41.0,39.0,29.78,ENE,75,0.0,2.0,94,0.00,,,0.30,,2014-01-03 01:52:00,
2014-01-02 21:22:00,40.0,38.0,29.78,NE,55,1.0,2.0,94,0.00,,,0.30,,2014-01-03 02:22:00,
2014-01-02 21:42:00,39.0,37.0,29.79,ENE,71,0.0,5.0,94,0.00,,,0.30,,2014-01-03 02:42:00,
2014-01-02 21:53:00,38.0,35.0,29.80,ESE,105,1.0,12.0,90,0.00,,,0.30,,2014-01-03 02:53:00,
2014-01-02 22:22:00,38.0,34.0,29.81,NE,44,0.0,6.0,85,0.00,,,0.30,,2014-01-03 03:22:00,
2014-01-02 22:54:00,37.0,31.0,29.82,ENE,63,3.0,7.0,80,0.00,,,0.30,,2014-01-03 03:54:00,
2014-01-02 23:23:00,36.0,29.0,29.85,ENE,60,3.0,11.0,75,0.00,,,0.30,,2014-01-03 04:23:00,
2014-01-02 23:43:00,36.0,29.0,29.86,ENE,63,1.0,12.0,74,0.00,,,0.30,,2014-01-03 04:43:00,
2014-01-02 23:53:00,35.0,26.0,29.88,ENE,67,1.0,16.0,69,0.00,,,0.30,,2014-01-03 04:53:00,